This is the latest recevied weather packets stored in our database for station/object KC4BAM. If no packets are shown the sender has not sent any weather packets the latest 10 day(s).
| Time | Temp. | Humidity | Pressure | Rain* | Wind** | Luminosity | Snow |
|---|---|---|---|---|---|---|---|
| 1777928883 | 27.78° C | 39% | 999.8 hPa | 0 mm | - | 409 W/m² | - |
| 1777928580 | 27.22° C | 39% | 999.8 hPa | 0 mm | - | 429 W/m² | - |
| 1777928277 | 27.78° C | 39% | 999.8 hPa | 0 mm | - | 444 W/m² | - |
| 1777927974 | 27.22° C | 40% | 999.8 hPa | 0 mm | - | 473 W/m² | - |
| 1777927672 | 26.67° C | 40% | 999.9 hPa | 0 mm | - | 282 W/m² | - |
| 1777927370 | 27.22° C | 39% | 1000 hPa | 0 mm | - | 457 W/m² | - |
| 1777927070 | 27.22° C | 39% | 1000.1 hPa | 0 mm | - | 464 W/m² | - |
| 1777926766 | 27.22° C | 39% | 1000.1 hPa | 0 mm | - | 473 W/m² | - |
| 1777926461 | 27.22° C | 39% | 1000.1 hPa | 0 mm | - | 485 W/m² | - |
| 1777926159 | 27.22° C | 38% | 1000.3 hPa | 0 mm | - | 480 W/m² | - |
| 1777925855 | 27.22° C | 39% | 1000.1 hPa | 0 mm | - | 518 W/m² | - |
| 1777925553 | 26.67° C | 38% | 1000.4 hPa | 0 mm | - | 550 W/m² | - |
| 1777925250 | 27.22° C | 39% | 1000.4 hPa | 0 mm | - | 177 W/m² | - |
| 1777924946 | 27.22° C | 39% | 1000.5 hPa | 0 mm | - | 566 W/m² | - |
| 1777924642 | 27.22° C | 40% | 1000.4 hPa | 0 mm | - | 588 W/m² | - |
| 1777924339 | 27.22° C | 39% | 1000.6 hPa | 0 mm | - | 573 W/m² | - |
| 1777924036 | 27.22° C | 38% | 1000.5 hPa | 0 mm | - | 584 W/m² | - |
| 1777923732 | 27.22° C | 40% | 1000.8 hPa | 0 mm | - | 605 W/m² | - |
| 1777923428 | 27.22° C | 40% | 1000.7 hPa | 0 mm | - | 619 W/m² | - |
| 1777923126 | 27.22° C | 40% | 1000.8 hPa | 0 mm | - | 615 W/m² | - |
| 1777922824 | 27.22° C | 41% | 1001 hPa | 0 mm | - | 629 W/m² | - |
| 1777922522 | 27.22° C | 42% | 1001 hPa | 0 mm | - | 673 W/m² | - |
| 1777922220 | 26.67° C | 43% | 1001 hPa | 0 mm | - | 666 W/m² | - |
| 1777921916 | 27.22° C | 42% | 1001.1 hPa | 0 mm | - | 689 W/m² | - |
| 1777921612 | 27.22° C | 42% | 1001 hPa | 0 mm | - | 645 W/m² | - |
* Rain latest hour (hover to see other rain measurements)
** Current wind speed in m/s (hover to see current wind gust speed)